This is the latest recevied weather packets stored in our database for station/object K0WOI. If no packets are shown the sender has not sent any weather packets the latest 10 day(s).
| Time | Temp. | Humidity | Pressure | Rain* | Wind** | Luminosity | Snow |
|---|---|---|---|---|---|---|---|
| 1778018437 | 14.44° C | 34% | 1010 hPa | 0 mm | - | 199 W/m² | - |
| 1778018135 | 13.89° C | 32% | 1009.9 hPa | 0 mm | - | 207 W/m² | - |
| 1778017833 | 13.89° C | 33% | 1009.9 hPa | 0 mm | - | 204 W/m² | - |
| 1778017531 | 13.89° C | 34% | 1010 hPa | 0 mm | - | 188 W/m² | - |
| 1778017227 | 13.89° C | 32% | 1010.2 hPa | 0 mm | - | 194 W/m² | - |
| 1778016925 | 13.89° C | 35% | 1010.2 hPa | 0 mm | - | 193 W/m² | - |
| 1778016621 | 14.44° C | 31% | 1010.2 hPa | 0 mm | - | 201 W/m² | - |
| 1778016318 | 14.44° C | 30% | 1010.2 hPa | 0 mm | - | 218 W/m² | - |
| 1778016015 | 14.44° C | 31% | 1010.6 hPa | 0 mm | - | 234 W/m² | - |
| 1778015712 | 14.44° C | 30% | 1010.3 hPa | 0 mm | - | 233 W/m² | - |
| 1778015408 | 15° C | 30% | 1010.2 hPa | 0 mm | - | 250 W/m² | - |
| 1778015105 | 14.44° C | 34% | 1010.1 hPa | 0 mm | - | 271 W/m² | - |
| 1778014802 | 14.44° C | 31% | 1010.3 hPa | 0 mm | - | 281 W/m² | - |
| 1778014500 | 15° C | 32% | 1010.2 hPa | 0 mm | - | 242 W/m² | - |
| 1778014197 | 15° C | 31% | 1010.5 hPa | 0 mm | - | 249 W/m² | - |
| 1778013895 | 15° C | 29% | 1010.1 hPa | 0 mm | - | 246 W/m² | - |
| 1778013592 | 15° C | 31% | 1010.2 hPa | 0 mm | - | 298 W/m² | - |
| 1778013288 | 15° C | 29% | 1010.4 hPa | 0 mm | - | 319 W/m² | - |
| 1778012985 | 15.56° C | 30% | 1010.3 hPa | 0 mm | - | 325 W/m² | - |
| 1778012681 | 15.56° C | 31% | 1010.4 hPa | 0 mm | - | 433 W/m² | - |
| 1778012377 | 15.56° C | 29% | 1010.7 hPa | 0 mm | - | 347 W/m² | - |
| 1778012075 | 15.56° C | 31% | 1010.2 hPa | 0 mm | - | 545 W/m² | - |
| 1778011773 | 15° C | 33% | 1010.5 hPa | 0 mm | - | 241 W/m² | - |
| 1778011470 | 15.56° C | 30% | 1010.5 hPa | 0 mm | - | 469 W/m² | - |
| 1778011165 | 15.56° C | 31% | 1010.5 hPa | 0 mm | - | 279 W/m² | - |
* Rain latest hour (hover to see other rain measurements)
** Current wind speed in m/s (hover to see current wind gust speed)